Nashville, TN

2:27 AM CST on December 06, 2019 (GMT -0600)
Nashville International

Weather History for KBNA - October, 2019

Change the Weather History Date:

Thursday, October 3, 2019

  Actual Average Record
Temperature  
Mean Temperature 82 °F 65 °F  
Max Temperature 99 °F 76 °F 92 °F (1903)
Min Temperature 65 °F 53 °F 35 °F (1984)
Degree Days  
Heating Degree Days 0    
Month to date heating degree days 0  
Since 1 July heating degree days 0  
Cooling Degree Days 17    
Month to date cooling degree days 55  
Year to date cooling degree days 2226  
Growing Degree Days 32 (Base 50)    
Moisture  
Dew Point 62 °F    
Average Humidity 56    
Maximum Humidity 87    
Minimum Humidity 29    
Precipitation  
Precipitation 0.00 in 0.10 in 1.33 in (1893)
Month to date precipitation 0.00 0.30  
Year to date precipitation 47.42 35.96  
Sea Level Pressure  
Sea Level Pressure 30.03 in    
Wind  
Wind Speed 4 mph ()    
Max Wind Speed 15 mph    
Max Gust Speed 19 mph    
Visibility 10.0 miles    
Events      
T = Trace of Precipitation, MM = Missing Value Source: Averaged Metar Reports

Daily Weather History Graph

Daily Weather History Graph

Search for Another Location

Airport or City:

Astronomy

Oct. 03, 2019 Rise Set
Actual Time 6:43 AM CDT 6:27 PM CDT
Civil Twilight 6:17 AM CDT 6:53 PM CDT
Nautical Twilight 5:47 AM CDT 7:23 PM CDT
Astronomical Twilight 5:17 AM CDT 7:52 PM CDT
Moon 12:05 PM CDT (10/3) 10:15 PM CDT (10/3)
Length of Visible Light 12h 35m
Length of Day
11h 44m
Waxing Crescent, 30% of the Moon is Illuminated
Oct 3
Waxing Crescent
Oct 5
First Quarter
Oct 13
Full
Oct 21
Last Quarter
Oct 27
New

Hourly Weather History & Observations

Time (CDT) Temp. Heat Index Dew Point Humidity Pressure Visibility Wind Dir Wind Speed Gust Speed Precip Events Conditions
12:53 AM 75.0 °F - 63.0 °F 66% 29.98 in 10.0 mi South 3.5 mph - N/A   Clear
1:53 AM 73.0 °F - 63.0 °F 71% 30.00 in 10.0 mi Calm Calm - N/A   Clear
2:53 AM 70.0 °F - 63.0 °F 78% 30.00 in 10.0 mi South 3.5 mph - N/A   Clear
3:53 AM 66.9 °F - 63.0 °F 87% 30.01 in 10.0 mi SSW 3.5 mph - N/A   Clear
4:53 AM 66.9 °F - 62.1 °F 84% 30.03 in 10.0 mi Calm Calm - N/A   Clear
5:53 AM 66.0 °F - 62.1 °F 87% 30.03 in 10.0 mi South 3.5 mph - N/A   Clear
6:53 AM 66.0 °F - 62.1 °F 87% 30.05 in 10.0 mi South 3.5 mph - N/A   Partly Cloudy
7:53 AM 68.0 °F - 64.0 °F 87% 30.06 in 10.0 mi Calm Calm - N/A   Clear
8:53 AM 80.1 °F 81.5 °F 63.0 °F 56% 30.07 in 10.0 mi Calm Calm - N/A   Clear
9:53 AM 88.0 °F 88.7 °F 63.0 °F 43% 30.07 in 10.0 mi West 3.5 mph - N/A   Clear
10:53 AM 91.9 °F 93.3 °F 64.0 °F 39% 30.06 in 10.0 mi NNW 5.8 mph - N/A   Clear
11:53 AM 93.0 °F 94.2 °F 63.0 °F 37% 30.06 in 10.0 mi NW 5.8 mph - N/A   Partly Cloudy
1:53 PM 95.0 °F 95.2 °F 61.0 °F 32% 30.02 in 10.0 mi NW 11.5 mph - N/A   Partly Cloudy
2:53 PM 97.0 °F 96.9 °F 60.1 °F 29% 30.01 in 10.0 mi West 6.9 mph 17.3 mph N/A   Partly Cloudy
3:53 PM 97.0 °F 97.4 °F 61.0 °F 30% 30.00 in 10.0 mi North 10.4 mph - N/A   Scattered Clouds
4:53 PM 93.9 °F 93.6 °F 60.1 °F 32% 30.00 in 10.0 mi NNW 10.4 mph - N/A   Partly Cloudy
5:53 PM 93.0 °F 92.3 °F 59.0 °F 32% 30.00 in 10.0 mi NNW 9.2 mph - N/A   Partly Cloudy
6:53 PM 89.1 °F 89.0 °F 61.0 °F 39% 30.01 in 10.0 mi NNW 4.6 mph - N/A   Clear
7:53 PM 87.1 °F 87.0 °F 61.0 °F 41% 30.02 in 10.0 mi North 4.6 mph - N/A   Clear
8:53 PM 84.9 °F 85.4 °F 62.1 °F 46% 30.03 in 10.0 mi NNW 5.8 mph - N/A   Clear
9:53 PM 84.0 °F 85.4 °F 64.0 °F 51% 30.05 in 10.0 mi North 12.7 mph - N/A   Clear
10:53 PM 81.0 °F 83.3 °F 66.9 °F 62% 30.07 in 10.0 mi North 13.8 mph - N/A   Clear
11:53 PM 78.1 °F - 66.0 °F 66% 30.07 in 10.0 mi North 11.5 mph - N/A   Clear